Main page
Satellite images Climate Cyclones Lightning AirportsFAQ Languages Contact Newsletter About
Weather : Europe Africa North America South America Asia Australia-Oceania Others

, Phrae, Phrae Airport

48330

latitude: , longitude: Thailand, elevation: 18-10N m


METAR: VTCP 200100Z 00000KT 8000 FEW015 SCT018 26/26 Q1010